�N����,����,�~����,�C��,���x,�C��,����,���ϕ���,�ő�u�ԕ���,�ő厞����,���˗�,�I�_���x,�n�����x,�ő啗���N��,DTYPE
"17/03/13","00:10",0.0,4.2,77.9,1013.5,320.5,2.3,2.8,320.1,0.00,0.7,7.7,"00:00:56",1
"17/03/13","00:20",0.0,4.0,78.3,1013.8,315.5,1.7,2.2,323.4,0.00,0.6,7.4,"00:14:16",1
"17/03/13","00:30",0.0,4.0,78.4,1013.8,328.1,1.7,2.5,316.7,0.00,0.6,7.4,"00:22:08",1
"17/03/13","00:40",0.0,3.9,78.4,1013.5,310.1,1.1,1.8,271.9,0.00,0.5,7.6,"00:39:36",1
"17/03/13","00:50",0.0,3.6,79.9,1013.5,310.3,1.7,2.2,318.8,0.00,0.5,7.3,"00:44:24",1
"17/03/13","01:00",0.0,3.5,80.4,1013.5,303.7,1.2,1.8,323.4,0.00,0.5,7.3,"00:50:24",1
"17/03/13","01:10",0.0,3.3,81.0,1013.3,295.6,0.8,1.6,294.2,0.00,0.4,7.2,"01:00:08",1
"17/03/13","01:20",0.0,3.5,81.2,1013.5,296.9,1.1,1.6,295.3,0.00,0.6,7.1,"01:19:36",1
"17/03/13","01:30",0.0,3.4,81.8,1013.3,305.6,1.8,2.4,313.4,0.00,0.6,7.1,"01:24:16",1
"17/03/13","01:40",0.0,3.5,82.5,1013.3,314.2,1.3,1.7,314.5,0.00,0.8,7.2,"01:30:16",1
"17/03/13","01:50",0.0,3.5,82.6,1013.3,286.8,0.7,1.0,294.8,0.00,0.9,7.1,"01:42:08",1
"17/03/13","02:00",0.0,3.6,82.3,1013.5,293.4,1.1,1.6,302.6,0.00,0.9,7.1,"01:58:08",1
"17/03/13","02:10",0.0,3.8,82.1,1013.5,302.6,1.1,1.9,317.5,0.00,1.1,7.2,"02:09:36",1
"17/03/13","02:20",0.0,3.7,82.2,1013.8,301.6,1.2,2.2,318.8,0.00,1.0,7.1,"02:11:28",1
"17/03/13","02:30",0.0,3.6,82.7,1013.0,302.6,1.0,2.1,321.5,0.00,1.0,7.2,"02:27:12",1
"17/03/13","02:40",0.0,3.6,83.0,1013.0,309.8,1.8,2.4,314.3,0.00,1.0,7.0,"02:38:16",1
"17/03/13","02:50",0.0,3.5,84.0,1013.0,319.6,2.1,2.7,321.5,0.00,1.1,7.1,"02:49:20",1
"17/03/13","03:00",0.0,3.6,84.0,1012.8,326.0,1.8,2.5,326.1,0.00,1.2,7.0,"02:51:04",1
"17/03/13","03:10",0.0,3.5,83.8,1012.8,288.3,1.2,1.6,298.4,0.00,1.1,7.2,"03:07:36",1
"17/03/13","03:20",0.0,3.4,84.0,1012.8,306.1,1.3,1.9,306.5,0.00,1.0,7.1,"03:15:44",1
"17/03/13","03:30",0.0,3.6,84.0,1012.6,317.8,1.7,2.2,312.4,0.00,1.2,7.0,"03:25:12",1
"17/03/13","03:40",0.0,3.7,83.3,1013.0,301.7,1.6,2.1,313.2,0.00,1.2,6.7,"03:32:24",1
"17/03/13","03:50",0.0,3.8,82.8,1012.3,304.9,1.6,2.0,318.7,0.00,1.2,6.8,"03:41:04",1
"17/03/13","04:00",0.0,3.8,82.7,1011.9,310.1,1.3,1.7,316.0,0.00,1.2,6.9,"03:50:48",1
"17/03/13","04:10",0.0,3.8,83.1,1012.1,301.9,1.3,2.0,324.2,0.00,1.2,7.0,"04:09:28",1
"17/03/13","04:20",0.0,3.7,83.6,1012.3,317.8,1.7,2.2,315.6,0.00,1.2,7.0,"04:16:16",1
"17/03/13","04:30",0.0,3.5,84.0,1011.9,304.4,0.7,1.8,321.9,0.00,1.1,6.7,"04:22:00",1
"17/03/13","04:40",0.0,3.3,84.7,1012.3,293.5,1.2,1.6,305.0,0.00,1.0,6.7,"04:39:20",1
"17/03/13","04:50",0.0,3.2,85.6,1012.1,312.9,1.7,2.2,306.4,0.00,1.1,7.0,"04:43:36",1
"17/03/13","05:00",0.0,3.2,86.3,1012.3,312.1,2.0,2.4,321.8,0.00,1.2,6.7,"04:53:44",1
"17/03/13","05:10",0.0,3.1,86.5,1012.3,313.4,1.8,2.5,322.1,0.00,1.1,6.7,"05:00:16",1
"17/03/13","05:20",0.0,3.1,86.9,1012.3,306.0,1.7,2.4,321.8,0.00,1.2,6.8,"05:19:44",1
"17/03/13","05:30",0.0,3.2,87.2,1012.1,320.4,1.8,2.5,322.3,0.00,1.3,6.8,"05:24:48",1
"17/03/13","05:40",0.0,3.1,87.4,1012.3,313.4,1.6,2.1,312.0,0.00,1.3,6.7,"05:30:08",1
"17/03/13","05:50",0.0,3.1,87.7,1012.3,312.2,1.6,2.1,309.3,0.00,1.3,6.7,"05:46:48",1
"17/03/13","06:00",0.0,2.9,87.9,1012.3,305.9,1.2,2.1,319.5,0.00,1.1,6.6,"05:50:08",1
"17/03/13","06:10",0.0,2.8,88.2,1012.8,156.4,0.3,1.8,316.0,0.00,1.1,6.6,"06:00:02",1
"17/03/13","06:20",0.0,2.6,87.9,1012.1,312.1,2.3,3.1,316.1,0.00,0.8,6.7,"06:15:36",1
"17/03/13","06:30",0.0,2.4,88.8,1012.3,314.2,2.1,2.6,319.3,0.00,0.8,6.3,"06:22:40",1
"17/03/13","06:40",0.0,2.5,89.4,1012.1,305.2,2.0,2.6,319.3,0.00,1.0,6.4,"06:31:28",1
"17/03/13","06:50",0.0,2.6,89.9,1012.1,302.7,1.2,2.0,310.6,0.00,1.2,6.5,"06:41:12",1
"17/03/13","07:00",0.0,2.8,90.3,1012.1,289.0,1.2,1.8,307.2,0.00,1.4,6.2,"06:59:36",1
"17/03/13","07:10",0.0,3.2,90.4,1012.1,310.2,1.2,1.7,315.4,0.01,1.8,6.4,"07:00:08",1
"17/03/13","07:20",0.0,3.8,89.8,1012.6,296.9,1.5,2.2,321.4,0.03,2.3,6.3,"07:15:52",1
"17/03/13","07:30",0.0,4.8,86.5,1012.3,298.0,1.6,2.8,319.5,0.04,2.8,6.2,"07:22:32",1
"17/03/13","07:40",0.0,6.2,79.6,1012.6,295.2,1.6,2.2,311.2,0.06,3.0,6.7,"07:35:28",1
"17/03/13","07:50",0.0,7.1,73.9,1013.0,290.1,2.0,2.6,321.2,0.09,2.8,6.7,"07:47:52",1
"17/03/13","08:00",0.0,7.9,70.1,1013.5,286.3,1.5,2.0,268.4,0.10,2.8,6.7,"07:52:40",1
"17/03/13","08:10",0.0,8.4,70.0,1013.3,293.6,0.6,1.3,325.5,0.10,3.3,7.1,"08:00:08",1
"17/03/13","08:20",0.0,8.5,70.5,1013.3,297.4,0.5,1.0,282.9,0.08,3.5,6.8,"08:14:16",1
"17/03/13","08:30",0.0,8.4,67.5,1013.8,233.3,0.3,1.0,287.6,0.10,2.8,7.1,"08:28:00",1
"17/03/13","08:40",0.0,8.8,66.1,1013.5,258.5,0.3,0.9,292.5,0.13,2.9,7.1,"08:31:04",1
"17/03/13","08:50",0.0,9.2,63.6,1013.3,305.5,0.7,1.3,333.6,0.15,2.7,7.3,"08:48:24",1
"17/03/13","09:00",0.0,9.5,59.7,1013.3,295.0,0.6,1.4,309.3,0.16,2.1,7.6,"08:51:20",1
"17/03/13","09:10",0.0,9.9,60.6,1013.3,280.7,0.7,1.2,264.0,0.16,2.7,7.6,"09:03:12",1
"17/03/13","09:20",0.0,10.0,58.1,1013.3,281.0,0.8,1.7,249.7,0.16,2.2,7.8,"09:18:32",1
"17/03/13","09:30",0.0,10.0,57.6,1013.0,255.6,1.0,2.0,241.4,0.16,2.1,7.9,"09:27:44",1
"17/03/13","09:40",0.0,10.4,57.2,1013.3,286.7,1.0,1.8,300.3,0.15,2.3,7.8,"09:34:32",1
"17/03/13","09:50",0.0,10.5,57.1,1013.0,263.7,1.0,1.6,275.0,0.13,2.4,8.3,"09:43:44",1
"17/03/13","10:00",0.0,10.9,55.7,1013.0,283.6,0.8,1.6,310.9,0.14,2.4,8.2,"09:58:00",1
"17/03/13","10:10",0.0,10.9,57.7,1013.0,277.2,0.8,1.3,251.4,0.13,2.9,8.4,"10:04:16",1
"17/03/13","10:20",0.0,10.9,56.1,1012.6,317.9,0.8,1.6,326.6,0.10,2.5,8.7,"10:13:12",1
"17/03/13","10:30",0.0,11.1,56.0,1012.6,312.8,0.8,2.2,313.4,0.10,2.7,8.6,"10:23:28",1
"17/03/13","10:40",0.0,11.2,55.4,1012.3,276.8,1.0,1.6,248.6,0.15,2.6,8.6,"10:33:52",1
"17/03/13","10:50",0.0,11.6,55.9,1012.6,286.8,1.0,1.7,301.9,0.13,3.1,8.8,"10:40:02",1
"17/03/13","11:00",0.0,11.7,55.0,1012.1,307.3,1.3,2.0,321.9,0.13,3.0,8.8,"10:50:24",1
"17/03/13","11:10",0.0,11.9,54.7,1012.3,203.8,0.3,1.3,327.0,0.18,3.1,8.9,"11:00:08",1
"17/03/13","11:20",0.0,11.9,53.6,1012.1,254.5,0.7,1.6,227.5,0.16,2.8,9.1,"11:16:24",1
"17/03/13","11:30",0.0,12.1,55.1,1011.9,313.9,0.7,1.4,326.2,0.15,3.4,9.0,"11:27:36",1
"17/03/13","11:40",0.0,12.2,55.1,1011.9,215.7,0.7,2.1,231.2,0.18,3.5,9.3,"11:37:28",1
"17/03/13","11:50",0.0,12.0,55.3,1011.4,213.4,0.7,1.4,229.2,0.12,3.4,9.3,"11:46:24",1
"17/03/13","12:00",0.0,11.9,57.5,1011.2,124.8,1.3,2.7,123.5,0.14,3.8,9.2,"11:55:36",1
"17/03/13","12:10",0.0,12.2,57.1,1011.4,158.1,0.7,1.4,139.9,0.17,4.0,9.5,"12:00:08",1
"17/03/13","12:20",0.0,12.6,55.0,1011.4,198.9,1.2,2.2,170.1,0.22,3.8,9.6,"12:13:12",1
"17/03/13","12:30",0.0,12.9,53.9,1010.9,183.7,1.2,2.5,224.2,0.22,3.8,9.7,"12:27:52",1
"17/03/13","12:40",0.0,12.7,55.0,1011.2,174.7,1.6,3.2,119.6,0.21,3.9,9.7,"12:39:04",1
"17/03/13","12:50",0.0,13.0,57.4,1010.7,168.2,1.6,3.1,119.3,0.27,4.8,10.0,"12:45:04",1
"17/03/13","13:00",0.0,13.1,59.1,1010.4,195.5,1.5,3.2,178.1,0.24,5.3,9.8,"12:51:52",1
"17/03/13","13:10",0.0,13.5,58.5,1010.2,203.9,1.8,3.6,231.0,0.39,5.6,9.9,"13:01:52",1
"17/03/13","13:20",0.0,14.6,58.0,1010.0,174.0,1.8,3.6,169.1,0.60,6.5,10.4,"13:10:02",1
"17/03/13","13:30",0.0,14.5,59.3,1009.7,175.1,2.1,3.7,177.9,0.55,6.7,10.4,"13:21:12",1
"17/03/13","13:40",0.0,14.3,61.2,1009.7,165.0,2.1,4.2,139.3,0.47,7.0,10.9,"13:39:52",1
"17/03/13","13:50",0.0,14.1,61.0,1009.7,169.4,2.2,4.5,149.8,0.40,6.7,11.0,"13:41:36",1
"17/03/13","14:00",0.0,14.0,60.3,1009.5,199.3,1.8,4.0,210.9,0.36,6.5,11.1,"13:57:28",1
"17/03/13","14:10",0.0,14.2,61.3,1009.3,198.2,1.8,4.3,153.7,0.31,6.9,11.4,"14:07:42",1
"17/03/13","14:20",0.0,13.9,60.1,1009.0,206.9,2.1,4.8,223.4,0.41,6.3,11.3,"14:12:56",1
"17/03/13","14:30",0.0,13.6,62.8,1009.0,207.6,2.2,3.6,213.4,0.28,6.7,11.4,"14:24:08",1
"17/03/13","14:40",0.0,14.2,61.0,1009.0,163.8,1.8,3.6,192.0,0.33,6.8,11.6,"14:36:56",1
"17/03/13","14:50",0.0,14.0,62.5,1009.0,169.8,1.5,3.4,131.7,0.28,7.0,11.6,"14:48:32",1
"17/03/13","15:00",0.0,14.3,62.1,1008.6,168.7,2.0,3.5,181.6,0.35,7.2,11.9,"14:50:48",1
"17/03/13","15:10",0.0,14.5,62.7,1008.8,159.0,1.7,3.2,135.2,0.32,7.5,12.0,"15:00:02",1
"17/03/13","15:20",0.0,13.8,62.6,1008.6,164.2,2.1,4.0,135.4,0.22,6.8,11.9,"15:12:24",1
"17/03/13","15:30",0.0,13.2,66.4,1008.6,130.9,2.3,4.8,139.8,0.12,7.1,11.7,"15:21:04",1
"17/03/13","15:40",0.0,13.0,67.2,1008.8,140.0,2.3,4.7,133.0,0.10,7.1,11.7,"15:38:48",1
"17/03/13","15:50",0.0,13.1,67.0,1008.8,132.0,2.1,4.2,113.0,0.09,7.2,11.6,"15:49:06",1
"17/03/13","16:00",0.0,13.1,67.3,1008.6,127.9,2.1,4.1,126.4,0.08,7.2,11.6,"15:57:12",1
"17/03/13","16:10",0.0,13.2,64.9,1008.1,139.9,2.6,4.5,142.9,0.07,6.8,11.7,"16:00:24",1
"17/03/13","16:20",0.0,13.1,65.2,1008.1,178.9,2.2,4.2,206.9,0.06,6.8,11.6,"16:17:06",1
"17/03/13","16:30",0.0,13.4,65.4,1007.8,170.6,2.1,4.2,150.0,0.06,7.1,11.6,"16:25:44",1
"17/03/13","16:40",0.0,13.4,66.3,1007.8,139.4,2.1,4.5,117.2,0.06,7.3,11.2,"16:31:44",1
"17/03/13","16:50",0.0,13.4,64.9,1008.1,175.5,2.2,3.6,170.4,0.06,7.0,11.1,"16:44:24",1
"17/03/13","17:00",0.0,13.4,64.9,1007.8,185.9,1.8,5.2,123.0,0.04,7.0,11.2,"16:53:36",1
"17/03/13","17:10",0.0,13.3,64.5,1008.1,184.5,2.0,4.4,152.0,0.04,6.8,11.1,"17:03:36",1
"17/03/13","17:20",0.0,13.2,65.3,1008.1,187.7,1.7,4.1,197.8,0.00,6.9,11.2,"17:10:32",1
"17/03/13","17:30",0.0,12.9,66.8,1008.1,200.0,1.1,3.3,188.7,0.00,6.9,11.1,"17:22:16",1
"17/03/13","17:40",0.0,12.3,67.1,1008.3,334.2,2.5,6.4,306.4,0.00,6.4,11.1,"17:39:44",1
"17/03/13","17:50",0.0,11.1,72.6,1008.3,344.0,3.9,6.5,333.6,0.00,6.4,10.9,"17:41:52",1
"17/03/13","18:00",0.0,10.6,75.5,1008.6,337.6,3.1,6.3,335.0,0.00,6.5,10.8,"17:53:04",1
"17/03/13","18:10",0.0,10.4,76.8,1008.8,332.3,2.5,4.8,337.9,0.00,6.5,10.7,"18:03:28",1
"17/03/13","18:20",0.0,10.3,77.0,1008.8,325.7,1.8,3.7,327.7,0.00,6.5,10.6,"18:14:24",1
"17/03/13","18:30",0.0,10.3,77.0,1008.8,284.9,1.7,2.9,310.7,0.00,6.5,10.4,"18:21:20",1
"17/03/13","18:40",0.0,10.3,77.0,1009.0,297.7,1.1,1.7,280.2,0.00,6.5,10.5,"18:33:20",1
"17/03/13","18:50",0.0,10.3,76.3,1009.0,300.8,1.6,2.7,308.1,0.00,6.4,10.6,"18:48:08",1
"17/03/13","19:00",0.0,10.3,77.3,1008.8,320.2,2.1,3.6,320.2,0.00,6.5,10.3,"18:53:12",1
"17/03/13","19:10",0.0,10.1,79.1,1008.8,331.3,1.8,2.8,327.0,0.00,6.7,10.2,"19:01:20",1
"17/03/13","19:20",0.0,9.8,82.1,1008.3,329.4,3.6,5.0,330.0,0.00,6.9,10.3,"19:16:32",1
"17/03/13","19:30",0.0,9.5,84.0,1008.8,323.6,2.7,4.1,336.8,0.00,7.0,10.2,"19:28:50",1
"17/03/13","19:40",0.0,9.2,85.3,1008.3,320.5,2.3,3.3,320.1,0.00,6.9,10.0,"19:30:08",1
"17/03/13","19:50",0.2,9.1,86.4,1008.6,324.9,2.1,3.2,325.7,0.00,7.0,10.1,"19:40:48",1
"17/03/13","20:00",0.0,9.0,87.3,1007.8,326.2,2.1,3.3,332.7,0.00,7.0,10.1,"19:53:46",1
"17/03/13","20:10",0.0,9.0,87.8,1008.1,323.9,3.0,4.3,334.6,0.00,7.1,10.0,"20:07:42",1
"17/03/13","20:20",0.0,9.0,87.8,1008.1,324.9,4.5,6.3,330.5,0.00,7.1,9.9,"20:14:56",1
"17/03/13","20:30",0.0,8.9,88.3,1008.3,327.5,3.2,5.2,337.4,0.00,7.1,9.7,"20:23:20",1
"17/03/13","20:40",0.0,8.8,89.3,1008.1,315.2,2.6,3.7,340.3,0.00,7.2,9.6,"20:39:52",1
"17/03/13","20:50",0.0,8.7,90.2,1008.1,329.1,2.3,3.4,328.1,0.00,7.2,9.8,"20:40:56",1
"17/03/13","21:00",0.0,8.6,91.0,1008.1,328.4,1.8,2.6,339.1,0.00,7.3,9.8,"20:50:56",1
"17/03/13","21:10",0.0,8.6,91.7,1008.3,323.5,2.2,3.6,315.4,0.00,7.4,9.7,"21:08:56",1
"17/03/13","21:20",0.0,8.6,91.9,1008.3,325.4,2.8,4.1,317.9,0.00,7.4,9.7,"21:10:24",1
"17/03/13","21:30",0.0,8.6,91.8,1008.1,326.4,2.3,3.3,324.0,0.00,7.4,9.7,"21:27:36",1
"17/03/13","21:40",0.0,8.7,90.9,1008.3,323.2,3.2,4.7,319.8,0.00,7.3,9.5,"21:32:56",1
"17/03/13","21:50",0.0,8.9,88.4,1008.3,322.3,3.2,5.6,343.9,0.00,7.1,9.5,"21:46:56",1
"17/03/13","22:00",0.0,8.9,87.1,1008.3,318.0,2.5,4.0,323.2,0.00,6.9,9.6,"21:51:12",1
"17/03/13","22:10",0.0,8.8,86.4,1009.0,327.2,3.0,4.4,311.7,0.00,6.7,9.4,"22:04:32",1
"17/03/13","22:20",0.0,8.7,85.5,1008.6,318.9,3.5,5.1,341.1,0.00,6.4,9.2,"22:19:44",1
"17/03/13","22:30",0.0,8.7,85.0,1009.0,318.4,3.6,6.2,330.0,0.00,6.4,9.4,"22:26:24",1
"17/03/13","22:40",0.0,8.6,84.5,1008.3,325.3,3.9,5.7,343.8,0.00,6.2,9.2,"22:36:00",1
"17/03/13","22:50",0.0,8.6,84.4,1008.3,326.2,3.1,5.2,319.2,0.00,6.2,9.3,"22:46:20",1
"17/03/13","23:00",0.0,8.5,84.6,1008.3,325.6,3.0,5.4,332.4,0.00,6.1,9.3,"22:53:06",1
"17/03/13","23:10",0.0,8.5,84.5,1008.3,323.7,2.7,5.0,316.6,0.00,6.1,9.2,"23:05:38",1
"17/03/13","23:20",0.0,8.4,84.5,1008.1,312.8,2.6,4.2,328.4,0.00,6.0,9.2,"23:11:40",1
"17/03/13","23:30",0.0,8.4,84.7,1007.8,329.2,2.7,4.5,340.6,0.00,6.0,9.0,"23:27:22",1
"17/03/13","23:40",0.0,8.3,84.2,1007.8,327.0,2.1,3.6,324.2,0.00,5.8,9.2,"23:34:12",1
"17/03/13","23:50",0.0,8.4,83.8,1007.6,318.0,2.8,3.9,307.5,0.00,5.9,9.1,"23:41:20",1
"17/03/13","24:00",0.0,8.4,83.7,1007.8,318.0,2.0,3.9,323.9,0.00,5.8,9.0,"23:50:32",1
